Tracking 19279 objects as of 13-Nov-2018
HD Live streaming from Space Station
objects crossing your sky now

O3B FM5

Track O3B FM5 now!
10-day predictions
O3B FM5 is classified as:


NORAD ID: 39188
Int'l Code: 2013-031A
Perigee: 8,068.4 km
Apogee: 8,077.8 km
Inclination: 0.0 °
Period: 287.9 minutes
Semi major axis: 14444 km
RCS: Unknown
Launch date: June 25, 2013
Source: O3b Networks (O3B)
Launch site: FRENCH GUIANA (FRGUI)

O3b satellites will reach customers across the planet between 45 degrees north and south latitude. O3b offers the benefits of fiber-optic lines without the costs to maintain them.
aabbcc
Your satellite tracking list
Your tracking list is empty




NASA's NSSDC Master Catalog

Two Line Element Set (TLE):
1 39188U 13031A   18316.61775998 -.00000028  00000-0  00000+0 0  9998
2 39188   0.0339  31.1222 0003252 207.1145 121.7371  5.00110885 98365
Source of the keplerian elements: AFSPC